Location: Auckland
(36.8670°S, 174.7670°E)
Time: 16:28:21
(UTC+13:00)

Cosmos 1745 Rocket - Pass Details

Date: 24 January 2019
Orbit: 953 x 997 km, 83.0° (Epoch: 18 February)

Event Time Altitude Azimuth Distance (km) Brightness Sun altitude
Exits shadow 23:05:13 32° 345° (NNW) 1,644 4.9 -24.0°
Maximum altitude 23:08:24 78° 263° (W) 1,029 4.1 -24.4°
Drops below altitude 10° 23:14:48 10° 176° (S) 2,779 7.0 -25.1°
Sets 23:17:21 0° 174° (S) 3,728 7.8 -25.4°
